APRIZESAT 3

Last updated on Sun Jun 21 2026 00:03:22 GMT+0000 (Coordinated Universal Time)

1 35686U 09041F 26171.37583324 .00001553 00000+0 13805-3 0 9997 2 35686 98.2069 324.7522 0062797 57.4441 303.2823 14.96251370916853
UTC large
Height (km)
Speed (km/s)
/
Latitude / Longitude
Inclination (degrees)
Orbital Period (minutes)
Azimuth
Elevation
Range (km)
Doppler Factor

Next 0 passes for location: London (51.5072 / 0.1276)

No passes found over London.
APRIZESAT 3